Norfolk, NE

12:07 AM CDT on May 28, 2017 (GMT -0500)
Stefan Memorial

Weather History for KOFK - January, 2012

Change the Weather History Date:

Friday, January 20, 2012

  Actual Average Record
Temperature  
Mean Temperature 14 °F 22 °F  
Max Temperature 21 °F 33 °F 66 °F (1944)
Min Temperature 7 °F 12 °F -26 °F (1962)
Degree Days  
Heating Degree Days 51 42  
Month to date heating degree days 712 859  
Since 1 July heating degree days 3196 3565  
Cooling Degree Days 0 0  
Month to date cooling degree days 0 0  
Year to date cooling degree days 0 0  
Moisture  
Dew Point 1 °F    
Average Humidity 65    
Maximum Humidity 80    
Minimum Humidity 49    
Precipitation  
Precipitation 0.01 in 0.02 in 0.60 in (1990)
Month to date precipitation 0.01 0.37  
Year to date precipitation 0.01 0.37  
Snow  
Snow 0.10 in 0.20 in - ()
Month to date snowfall 0.1 3.9  
Since 1 July snowfall 8.2 14.8  
Snow Depth T in    
Sea Level Pressure  
Sea Level Pressure 30.09 in    
Wind  
Wind Speed 11 mph (NNE)    
Max Wind Speed 23 mph    
Max Gust Speed 26 mph    
Visibility 10 miles    
Events Snow    
T = Trace of Precipitation, MM = Missing Value Source: NWS Daily Summary

Daily Weather History Graph

Daily Weather History Graph

Search for Another Location

Airport or City:

Trip Planner

Search our weather history database for the weather conditions in past years. The results will help you decide how hot, cold, wet, or windy it might be!

Date:

Astronomy

Jan. 20, 2012 Rise Set
Actual Time 7:52 AM CST 5:28 PM CST
Civil Twilight 7:22 AM CST 5:59 PM CST
Nautical Twilight 6:48 AM CST 6:33 PM CST
Astronomical Twilight 6:14 AM CST 7:06 PM CST
Moon 5:32 AM CST (1/20) 3:00 PM CST (1/20)
Length of Visible Light 10h 37m
Length of Day
9h 36m
Waning Crescent, 8% of the Moon is Illuminated
Jan 20
Waning Crescent
Jan 23
New
Jan 30
First Quarter
Feb 7
Full
Feb 14
Last Quarter

Hourly Weather History & Observations

Time (CST) Temp. Windchill Dew Point Humidity Pressure Visibility Wind Dir Wind Speed Gust Speed Precip Events Conditions
12:56 AM 10.9 °F -0.8 °F -2.9 °F 54% 30.06 in 10.0 mi SE 8.1 mph - 0.00 in   Overcast
2:56 AM 10.0 °F -6.5 °F -4.0 °F 53% 29.99 in 10.0 mi SE 15.0 mph - N/A   Overcast
3:56 AM 10.0 °F -2.9 °F -2.9 °F 56% 29.97 in 10.0 mi SE 9.2 mph - N/A   Overcast
4:56 AM 10.9 °F -5.4 °F -2.9 °F 54% 29.95 in 10.0 mi SE 15.0 mph - N/A   Overcast
5:56 AM 10.9 °F -2.6 °F -0.9 °F 59% 29.96 in 10.0 mi SE 10.4 mph - 0.01 in   Overcast
6:56 AM 10.9 °F -2.6 °F -0.9 °F 59% 29.96 in 10.0 mi SE 10.4 mph - 0.00 in   Mostly Cloudy
8:56 AM 12.0 °F -0.4 °F -0.9 °F 56% 30.00 in 10.0 mi ESE 9.2 mph - N/A   Clear
9:56 AM 14.0 °F 5.1 °F -0.0 °F 54% 30.01 in 10.0 mi ESE 5.8 mph - N/A   Clear
10:56 AM 15.1 °F 9.4 °F 1.0 °F 54% 30.04 in 10.0 mi Variable 3.5 mph - N/A   Clear
11:56 AM 17.1 °F - 1.9 °F 52% 30.02 in 10.0 mi Calm Calm - N/A   Clear
12:56 PM 19.9 °F 7.3 °F 3.0 °F 48% 30.01 in 10.0 mi North 12.7 mph - N/A   Clear
1:56 PM 19.9 °F 6.2 °F 3.9 °F 50% 30.04 in 10.0 mi North 15.0 mph - N/A   Clear
2:56 PM 19.0 °F 4.0 °F 3.9 °F 52% 30.08 in 10.0 mi North 17.3 mph - N/A   Overcast
3:56 PM 17.1 °F 2.0 °F 3.9 °F 56% 30.12 in 10.0 mi North 16.1 mph - N/A   Overcast
4:12 PM 15.8 °F -0.6 °F 3.2 °F 58% 30.04 in 10.0 mi NNW 18.4 mph 26.5 mph N/A   Overcast
4:56 PM 14.0 °F -2.5 °F 5.0 °F 67% 30.17 in 7.0 mi North 17.3 mph 23.0 mph 0.00 in Snow Light Snow
5:21 PM 12.2 °F -5.3 °F 3.2 °F 67% 30.09 in 10.0 mi North 18.4 mph - N/A   Overcast
5:56 PM 12.0 °F -5.1 °F 1.9 °F 64% 30.20 in 10.0 mi North 17.3 mph - N/A   Mostly Cloudy
6:05 PM 12.2 °F -3.7 °F 3.2 °F 67% 30.11 in 10.0 mi North 15.0 mph - N/A   Mostly Cloudy
6:18 PM 10.4 °F -5.4 °F 1.4 °F 67% 30.11 in 10.0 mi North 13.8 mph - N/A   Scattered Clouds
6:56 PM 10.0 °F -6.5 °F 1.9 °F 70% 30.23 in 10.0 mi North 15.0 mph - N/A   Partly Cloudy
7:56 PM 8.1 °F -6.2 °F 1.0 °F 73% 30.25 in 10.0 mi North 10.4 mph - N/A   Clear
8:56 PM 7.0 °F -5.7 °F 1.0 °F 77% 30.27 in 10.0 mi NNW 8.1 mph - N/A   Partly Cloudy
9:56 PM 10.0 °F -1.9 °F 1.9 °F 70% 30.28 in 10.0 mi North 8.1 mph - N/A   Overcast
10:56 PM 10.9 °F -0.8 °F 1.9 °F 67% 30.29 in 10.0 mi North 8.1 mph - N/A   Overcast